Weather History for Homer, AK

Change the Weather History Date:

Thursday, October 31, 2013

  Actual Average Record
Temperature  
Mean Temperature 44 °F -  
Max Temperature 46 °F 39 °F 52 °F (1986)
Min Temperature 43 °F 25 °F 2 °F (1975)
Degree Days  
Heating Degree Days 20    
Moisture  
Dew Point 38 °F    
Average Humidity 78    
Maximum Humidity 86    
Minimum Humidity 68    
Precipitation  
Precipitation 0.15 in - - ()
Sea Level Pressure  
Sea Level Pressure 29.39 in    
Wind  
Wind Speed 5 mph (WSW)    
Max Wind Speed 16 mph    
Max Gust Speed 24 mph    
Visibility 10 miles    
Events Rain    
Averages and records for this station are not official NWS values.
T = Trace of Precipitation, MM = Missing Value Source: NWS Daily Summary

Daily Weather History Graph

Daily Weather History Graph

Search for Another Location

Airport:

Trip Planner

Search our weather history database for the weather conditions in past years. The results will help you decide how hot, cold, wet, or windy it might be!

Date:

Astronomy

Oct. 31, 2013 Rise Set
Actual Time 9:25 AM AKDT 6:12 PM AKDT
Civil Twilight 8:40 AM AKDT 6:57 PM AKDT
Nautical Twilight 7:51 AM AKDT 7:45 PM AKDT
Astronomical Twilight 7:04 AM AKDT 8:33 PM AKDT
Moon 5:46 AM AKDT (10/31) 5:08 PM AKDT (10/31)
Length of Visible Light 10h 16m
Length of Day
8h 47m
Waning Crescent, 9% of the Moon is Illuminated
Oct 31
Waning Crescent
Nov 3
New
Nov 9
First Quarter
Nov 17
Full
Nov 25
Last Quarter

Hourly Weather History & Observations

Time (AKDT) Temp. Windchill Dew Point Humidity Pressure Visibility Wind Dir Wind Speed Gust Speed Precip Events Conditions
12:53 AM 43.0 °F - 36.0 °F 76% 29.17 in 10.0 mi Calm Calm - N/A   Scattered Clouds
1:53 AM 44.1 °F 40.1 °F 35.1 °F 71% 29.20 in 10.0 mi North 6.9 mph - N/A   Overcast
2:53 AM 45.0 °F 41.2 °F 35.1 °F 68% 29.21 in 10.0 mi NNE 6.9 mph - N/A   Overcast
3:53 AM 44.1 °F 40.8 °F 36.0 °F 73% 29.24 in 10.0 mi ENE 5.8 mph - 0.01 in Rain Light Rain
4:53 AM 43.0 °F - 37.0 °F 80% 29.26 in 9.0 mi Calm Calm - 0.03 in Rain Light Rain
5:53 AM 44.1 °F 40.1 °F 37.9 °F 79% 29.27 in 10.0 mi SSW 6.9 mph - 0.02 in Rain Light Rain
6:14 AM 44.6 °F 42.2 °F 39.2 °F 81% 29.28 in 10.0 mi SW 4.6 mph - 0.01 in Rain Light Rain
6:53 AM 44.1 °F 40.1 °F 39.0 °F 82% 29.29 in 10.0 mi SW 6.9 mph - 0.01 in Rain Light Rain
7:53 AM 44.1 °F 39.5 °F 39.0 °F 82% 29.31 in 10.0 mi SW 8.1 mph - 0.01 in   Overcast
8:29 AM 44.6 °F 42.2 °F 39.2 °F 81% 29.32 in 10.0 mi WSW 4.6 mph - N/A   Overcast
8:38 AM 44.6 °F 43.1 °F 39.2 °F 81% 29.32 in 10.0 mi West 3.5 mph - N/A   Overcast
8:53 AM 45.0 °F 42.6 °F 37.9 °F 76% 29.33 in 10.0 mi Variable 4.6 mph - N/A   Overcast
9:19 AM 44.6 °F 42.2 °F 39.2 °F 81% 29.33 in 10.0 mi West 4.6 mph - 0.00 in Rain Light Rain
9:40 AM 44.6 °F - 39.2 °F 81% 29.34 in 10.0 mi Calm Calm - 0.01 in Rain Light Rain
9:53 AM 45.0 °F - 39.0 °F 80% 29.35 in 9.0 mi Calm Calm - 0.01 in Rain Light Rain
10:51 AM 44.6 °F - 39.2 °F 81% 29.37 in 10.0 mi Calm Calm - 0.02 in Rain Light Rain
10:53 AM 44.1 °F - 39.9 °F 85% 29.37 in 10.0 mi Calm Calm - 0.02 in Rain Light Rain
11:01 AM 44.6 °F - 39.2 °F 81% 29.37 in 9.0 mi Calm Calm - 0.00 in Rain Light Rain
11:28 AM 44.6 °F - 39.2 °F 81% 29.38 in 10.0 mi Calm Calm - 0.01 in Rain Light Rain
11:53 AM 45.0 °F - 41.0 °F 86% 29.39 in 10.0 mi Calm Calm - 0.02 in Rain Light Rain
12:53 PM 45.0 °F - 41.0 °F 86% 29.42 in 10.0 mi Calm Calm - 0.00 in Rain Light Rain
1:27 PM 46.4 °F - 41.0 °F 81% 29.43 in 10.0 mi Calm Calm - 0.00 in Rain Light Rain
1:53 PM 46.0 °F - 41.0 °F 83% 29.44 in 10.0 mi Calm Calm - 0.01 in Rain Light Rain
2:53 PM 45.0 °F 40.6 °F 39.9 °F 82% 29.46 in 10.0 mi SW 8.1 mph - 0.00 in Rain Light Rain
3:53 PM 45.0 °F 38.9 °F 37.9 °F 76% 29.47 in 10.0 mi WSW 12.7 mph - 0.01 in   Overcast
4:53 PM 45.0 °F 39.3 °F 37.0 °F 74% 29.49 in 10.0 mi WSW 11.5 mph - N/A   Mostly Cloudy
5:53 PM 45.0 °F 39.7 °F 37.0 °F 74% 29.51 in 10.0 mi WSW 10.4 mph - N/A   Mostly Cloudy
6:53 PM 45.0 °F 39.7 °F 37.0 °F 74% 29.52 in 10.0 mi SW 10.4 mph - N/A   Mostly Cloudy
7:53 PM 45.0 °F 40.6 °F 35.1 °F 68% 29.54 in 10.0 mi SW 8.1 mph - N/A   Mostly Cloudy
8:53 PM 45.0 °F 39.7 °F 36.0 °F 71% 29.56 in 10.0 mi SW 10.4 mph - N/A   Mostly Cloudy
9:44 PM 44.6 °F 38.8 °F 37.4 °F 76% 29.57 in 10.0 mi SW 11.5 mph - N/A   Overcast
9:53 PM 45.0 °F 38.9 °F 36.0 °F 71% 29.58 in 10.0 mi SW 12.7 mph - N/A   Overcast
10:53 PM 45.0 °F 38.2 °F 36.0 °F 71% 29.61 in 10.0 mi SW 15.0 mph - N/A   Overcast
11:53 PM 45.0 °F 37.9 °F 36.0 °F 71% 29.64 in 10.0 mi SW 16.1 mph 24.2 mph N/A   Overcast